Rbgn^[z[y[W
メイン
   新天体発見情報
     Comet C/1971 M1 (Edwards)
投稿するにはまず登録を

スレッド表示 | 新しいものから 前のトピック | 次のトピック | 下へ
投稿者 スレッド
佐藤裕久
投稿日時: 2023-4-13 0:57
モデレータ
登録日: 2005-6-12
居住地: 日本
投稿: 2463
オンライン
Comet C/1971 M1 (Edwards)

1971年6月19日UT、Leonard R. Edwards (当時、ニュージーランド、Timaru近郊の米空
軍基地配属の軍曹)によって、Baker-Nunnカメラで撮影されたフイルム45秒露出3枚から
遅れて見つけられた彗星で、1年後に報告された(IAUC 2432参照)。
符号なし、または確認不足による名前が、1971年の6夜に1ヵ月以上にわたった追加写真
で判明した。M. MeyerとG. W. Kronk (近々出版予定の未確認彗星の本のため、彼らの
研究の一環)の献身的な捜索で、軌道計算と符号と名前の割り当てがされた。
M. Meyerによると、G. W. Kronkと共同で行ったスキャンの測定について、X/1971 M1を
検出した写真プレートの1971年7月25日の画像について、この彗星はp.a.150°方向に5'
の尾を引いていた。
小惑星センターは、この彗星の符号をX/からC/に変更し、WGSBNは、Edwardsという名前
をつけた。

MeyerとKronkがEdwardsの処理した発見位置などは次のとおり、

     1971 UT             R.A. (2000) Decl.       Mag.   Observer
     June 19.58551   17 49 42.87   -23 11 17.6   10     Edwards
          20.80972   17 47 18.34   -22 48 37.5   10     Bruwer
          20.85972   17 47 12.47   -22 47 34.5            "
          20.89028   17 47 09.16   -22 46 52.8          (Damon)
          20.97361   17 46 59.64   -22 45 34.3            "
          22.88472   17 43 17.05   -22 09 22.9            "
          23.88194   17 41 20.72   -21 50 19.2            "
     July 18.76806   16 58 35      -13 49 44              "
          21.71806   16 54 32.49   -12 56 09.3            "
          21.80139   16 54 26.87   -12 54 57.6            "
          25.72708   16 49 30.67   -11 46 07.2   11       "
          25.81042   16 49 25.05   -11 44 59.0            "

MPCによる放物線軌道要素、位置推算表は次のとおり、

Orbital elements:
    C/1971 M1 (Edwards)                                                         
T 1971 Dec. 7.15380 TT                                  Rudenko                 
q   2.8871397            (2000.0)            P               Q                  
                   Peri.   43.90136     -0.11478311     -0.06333785             
                   Node   267.77719     -0.93113936     +0.35458148             
e   1.0            Incl.   97.19948     +0.34612763     +0.93287743             
From 12 observations 1971 June 19-July 25.      

Ephemeris:
Date    UT   R.A. (J2000) Decl.    Delta     r   Elong. Phase   m1 
1971 03 30  19 15.17   -37 28.0    3.783   3.809   83.9  15.1  12.7
1971 04 09  19 14.68   -36 28.0    3.553   3.748   93.4  15.5  12.5
1971 04 19  19 11.72   -35 22.9    3.324   3.689  103.4  15.4  12.3
1971 04 29  19 05.94   -34 09.9    3.101   3.630  114.1  14.7  12.1
1971 05 09  18 57.04   -32 45.0    2.893   3.573  125.4  13.3  11.8
1971 05 19  18 44.91   -31 03.4    2.705   3.518  137.5  11.2  11.6
1971 05 29  18 29.69   -29 00.2    2.546   3.463  150.4   8.3  11.4
1971 06 08  18 11.97   -26 32.3    2.424   3.411  164.0   4.7  11.3
1971 06 18  17 52.79   -23 40.4    2.344   3.360  178.2   0.6  11.1
1971 06 28  17 33.47   -20 30.9    2.312   3.311  167.4   3.8  11.0
1971 07 08  17 15.41   -17 14.6    2.325   3.265  153.1   8.1  11.0
1971 07 18  16 59.67   -14 03.8    2.380   3.220  139.3  11.9  11.0
1971 07 28  16 46.89   -11 08.1    2.470   3.177  126.2  14.9  11.0
1971 08 07  16 37.28   -08 32.8    2.585   3.137  114.0  17.2  11.0
1971 08 17  16 30.74   -06 19.0    2.717   3.100  102.6  18.6  11.1
1971 08 27  16 27.00   -04 24.9    2.857   3.065   92.1  19.2  11.1
1971 09 06  16 25.73   -02 47.0    2.998   3.033   82.3  19.2  11.2
1971 09 16  16 26.58   -01 21.6    3.134   3.004   73.3  18.7  11.3
1971 09 26  16 29.26   -00 04.7    3.262   2.978   64.9  17.8  11.3
1971 10 06  16 33.48   +01 07.2    3.375   2.955   57.2  16.5  11.3

(MPEC 2023-F148、CBET 5239)

スレッド表示 | 新しいものから 前のトピック | 次のトピック | トップ

投稿するにはまず登録を
 
© 1999 Tsutomu Seki.